Time,TemperatureF,DewpointF,PressureIn,WindDirection,WindDirectionDegrees,WindSpeedMPH,WindSpeedGustMPH,Humidity,HourlyPrecipIn,Conditions,Clouds,dailyrainin,SolarRadiationWatts/m^2,SoftwareType,DateUTC
2013-02-08 00:21:00,26.0,26.0,-100.00,NNE,25,8.0,11.0,100,0.00,,,0.00,0.000000,,2013-02-08 06:21:00,
2013-02-08 00:32:00,26.0,26.0,-100.00,NNE,25,8.0,11.0,100,0.00,,,0.00,0.000000,,2013-02-08 06:32:00,
2013-02-08 00:42:00,26.0,26.0,-100.00,NNE,25,8.0,11.0,100,0.00,,,0.00,0.000000,,2013-02-08 06:42:00,
2013-02-08 00:51:00,26.0,26.0,-100.00,NNE,25,8.0,11.0,100,0.00,,,0.00,0.000000,,2013-02-08 06:51:00,
2013-02-08 01:21:00,26.0,26.0,-100.00,ENE,59,6.0,11.0,100,0.00,,,0.00,0.000000,,2013-02-08 07:21:00,
2013-02-08 01:32:00,26.0,26.0,-100.00,ENE,59,6.0,11.0,100,0.00,,,0.00,0.000000,,2013-02-08 07:32:00,
2013-02-08 01:42:00,26.0,26.0,-100.00,ENE,59,6.0,11.0,100,0.00,,,0.00,0.000000,,2013-02-08 07:42:00,
2013-02-08 01:51:00,26.0,26.0,-100.00,ENE,59,6.0,11.0,100,0.00,,,0.00,0.000000,,2013-02-08 07:51:00,
2013-02-08 02:21:00,26.0,26.0,-100.00,ENE,62,5.0,9.0,100,0.00,,,0.00,0.000000,,2013-02-08 08:21:00,
2013-02-08 02:32:00,26.0,26.0,-100.00,ENE,62,5.0,9.0,100,0.00,,,0.00,0.000000,,2013-02-08 08:32:00,
2013-02-08 02:42:00,26.0,26.0,-100.00,ENE,62,5.0,9.0,100,0.00,,,0.00,0.000000,,2013-02-08 08:42:00,
2013-02-08 02:52:00,26.0,26.0,-100.00,ENE,62,5.0,9.0,100,0.00,,,0.00,0.000000,,2013-02-08 08:52:00,
2013-02-08 03:21:00,25.0,25.0,-100.00,East,79,4.0,7.0,100,0.00,,,0.00,0.000000,,2013-02-08 09:21:00,
2013-02-08 03:32:00,25.0,25.0,-100.00,East,79,4.0,7.0,100,0.00,,,0.00,0.000000,,2013-02-08 09:32:00,
2013-02-08 03:42:00,25.0,25.0,-100.00,East,79,4.0,7.0,100,0.00,,,0.00,0.000000,,2013-02-08 09:42:00,
2013-02-08 03:52:00,25.0,25.0,-100.00,East,79,4.0,7.0,100,0.00,,,0.00,0.000000,,2013-02-08 09:52:00,
2013-02-08 04:22:00,25.0,25.0,-100.00,East,83,4.0,7.0,100,0.00,,,0.00,0.000000,,2013-02-08 10:22:00,
2013-02-08 04:32:00,25.0,25.0,-100.00,East,83,4.0,7.0,100,0.00,,,0.00,0.000000,,2013-02-08 10:32:00,
2013-02-08 04:42:00,25.0,25.0,-100.00,East,83,4.0,7.0,100,0.00,,,0.00,0.000000,,2013-02-08 10:42:00,
2013-02-08 04:51:00,25.0,25.0,-100.00,East,83,4.0,7.0,100,0.00,,,0.00,0.000000,,2013-02-08 10:51:00,
2013-02-08 05:21:00,25.0,25.0,-100.00,ESE,113,5.0,7.0,100,0.00,,,0.00,0.000000,,2013-02-08 11:21:00,
2013-02-08 05:32:00,25.0,25.0,-100.00,ESE,113,5.0,7.0,100,0.00,,,0.00,0.000000,,2013-02-08 11:32:00,
2013-02-08 05:42:00,25.0,25.0,-100.00,ESE,113,5.0,7.0,100,0.00,,,0.00,0.000000,,2013-02-08 11:42:00,
2013-02-08 05:52:00,25.0,25.0,-100.00,ESE,113,5.0,7.0,100,0.00,,,0.00,0.000000,,2013-02-08 11:52:00,
2013-02-08 06:22:00,24.0,24.0,-100.00,East,96,6.0,9.0,100,0.00,,,0.00,0.000000,,2013-02-08 12:22:00,
2013-02-08 06:33:00,24.0,24.0,-100.00,East,96,6.0,9.0,100,0.00,,,0.00,0.000000,,2013-02-08 12:33:00,
2013-02-08 06:42:00,24.0,24.0,-100.00,East,96,6.0,9.0,100,0.00,,,0.00,0.000000,,2013-02-08 12:42:00,
2013-02-08 06:52:00,24.0,24.0,-100.00,East,96,6.0,9.0,100,0.00,,,0.00,0.000000,,2013-02-08 12:52:00,
2013-02-08 07:22:00,25.0,25.0,-100.00,ESE,113,6.0,9.0,100,0.00,,,-99.99,0.000000,,2013-02-08 13:22:00,
2013-02-08 07:32:00,25.0,25.0,-100.00,ESE,113,6.0,9.0,100,0.00,,,-99.99,0.000000,,2013-02-08 13:32:00,
2013-02-08 07:42:00,25.0,25.0,-100.00,ESE,113,6.0,9.0,100,0.00,,,-99.99,0.000000,,2013-02-08 13:42:00,
2013-02-08 07:51:00,25.0,25.0,-100.00,ESE,113,6.0,9.0,100,0.00,,,-99.99,0.000000,,2013-02-08 13:51:00,
2013-02-08 08:22:00,24.0,24.0,-100.00,SSE,155,6.0,9.0,100,0.00,,,0.00,2.000000,,2013-02-08 14:22:00,
2013-02-08 08:32:00,24.0,24.0,-100.00,SSE,155,6.0,9.0,100,0.00,,,0.00,2.000000,,2013-02-08 14:32:00,
2013-02-08 08:42:00,24.0,24.0,-100.00,SSE,155,6.0,9.0,100,0.00,,,0.00,2.000000,,2013-02-08 14:42:00,
2013-02-08 08:52:00,24.0,24.0,-100.00,SSE,155,6.0,9.0,100,0.00,,,0.00,2.000000,,2013-02-08 14:52:00,
2013-02-08 09:22:00,25.0,25.0,-100.00,SE,139,8.0,10.0,100,0.00,,,0.00,31.000000,,2013-02-08 15:22:00,
2013-02-08 09:32:00,25.0,25.0,-100.00,SE,139,8.0,10.0,100,0.00,,,0.00,31.000000,,2013-02-08 15:32:00,
2013-02-08 09:42:00,25.0,25.0,-100.00,SE,139,8.0,10.0,100,0.00,,,0.00,31.000000,,2013-02-08 15:42:00,
2013-02-08 09:52:00,25.0,25.0,-100.00,SE,139,8.0,10.0,100,0.00,,,0.00,31.000000,,2013-02-08 15:52:00,
2013-02-08 10:22:00,25.0,25.0,-100.00,SE,138,9.0,12.0,100,0.00,,,0.00,101.000000,,2013-02-08 16:22:00,
2013-02-08 10:32:00,25.0,25.0,-100.00,SE,138,9.0,12.0,100,0.00,,,0.00,101.000000,,2013-02-08 16:32:00,
2013-02-08 10:42:00,25.0,25.0,-100.00,SE,138,9.0,12.0,100,0.00,,,0.00,101.000000,,2013-02-08 16:42:00,
2013-02-08 10:52:00,25.0,25.0,-100.00,SE,138,9.0,12.0,100,0.00,,,0.00,101.000000,,2013-02-08 16:52:00,
2013-02-08 11:23:00,26.0,26.0,-100.00,SE,138,9.0,13.0,100,0.00,,,-99.99,159.000000,,2013-02-08 17:23:00,
2013-02-08 11:32:00,26.0,26.0,-100.00,SE,138,9.0,13.0,100,0.00,,,-99.99,159.000000,,2013-02-08 17:32:00,
2013-02-08 11:42:00,26.0,26.0,-100.00,SE,138,9.0,13.0,100,0.00,,,-99.99,159.000000,,2013-02-08 17:42:00,
2013-02-08 11:52:00,26.0,26.0,-100.00,SE,138,9.0,13.0,100,0.00,,,-99.99,159.000000,,2013-02-08 17:52:00,
2013-02-08 12:24:00,28.0,28.0,-100.00,SSE,159,9.0,13.0,100,0.00,,,0.00,192.000000,,2013-02-08 18:24:00,
2013-02-08 12:35:00,28.0,28.0,-100.00,SSE,159,9.0,13.0,100,0.00,,,0.00,192.000000,,2013-02-08 18:35:00,
2013-02-08 12:43:00,28.0,28.0,-100.00,SSE,159,9.0,13.0,100,0.00,,,0.00,192.000000,,2013-02-08 18:43:00,
2013-02-08 12:52:00,28.0,28.0,-100.00,SSE,159,9.0,13.0,100,0.00,,,0.00,192.000000,,2013-02-08 18:52:00,
2013-02-08 13:22:00,28.0,28.0,-100.00,SE,135,11.0,15.0,100,0.00,,,0.00,224.000000,,2013-02-08 19:22:00,
2013-02-08 13:32:00,28.0,28.0,-100.00,SE,135,11.0,15.0,100,0.00,,,0.00,224.000000,,2013-02-08 19:32:00,
2013-02-08 13:42:00,28.0,28.0,-100.00,SE,135,11.0,15.0,100,0.00,,,0.00,224.000000,,2013-02-08 19:42:00,
2013-02-08 13:52:00,28.0,28.0,-100.00,SE,135,11.0,15.0,100,0.00,,,0.00,224.000000,,2013-02-08 19:52:00,
2013-02-08 14:22:00,30.0,30.0,-100.00,SE,145,11.0,15.0,100,0.00,,,0.00,231.000000,,2013-02-08 20:22:00,
2013-02-08 14:32:00,30.0,30.0,-100.00,SE,145,11.0,15.0,100,0.00,,,0.00,231.000000,,2013-02-08 20:32:00,
2013-02-08 14:42:00,30.0,30.0,-100.00,SE,145,11.0,15.0,100,0.00,,,0.00,231.000000,,2013-02-08 20:42:00,
2013-02-08 14:52:00,30.0,30.0,-100.00,SE,145,11.0,15.0,100,0.00,,,0.00,231.000000,,2013-02-08 20:52:00,
2013-02-08 15:22:00,32.0,32.0,-100.00,SE,143,14.0,17.0,100,0.00,,,0.00,350.000000,,2013-02-08 21:22:00,
2013-02-08 15:32:00,32.0,32.0,-100.00,SE,143,14.0,17.0,100,0.00,,,0.00,350.000000,,2013-02-08 21:32:00,
2013-02-08 15:42:00,32.0,32.0,-100.00,SE,143,14.0,17.0,100,0.00,,,0.00,350.000000,,2013-02-08 21:42:00,
2013-02-08 15:52:00,32.0,32.0,-100.00,SE,143,14.0,17.0,100,0.00,,,0.00,350.000000,,2013-02-08 21:52:00,
2013-02-08 16:22:00,33.0,33.0,-100.00,SSE,150,16.0,21.0,100,0.00,,,0.00,345.000000,,2013-02-08 22:22:00,
2013-02-08 16:32:00,33.0,33.0,-100.00,SSE,150,16.0,21.0,100,0.00,,,0.00,345.000000,,2013-02-08 22:32:00,
2013-02-08 16:42:00,33.0,33.0,-100.00,SSE,150,16.0,21.0,100,0.00,,,0.00,345.000000,,2013-02-08 22:42:00,
2013-02-08 16:51:00,33.0,33.0,-100.00,SSE,150,16.0,21.0,100,0.00,,,0.00,345.000000,,2013-02-08 22:51:00,
2013-02-08 17:21:00,35.0,35.0,-100.00,SSE,153,14.0,22.0,100,0.00,,,0.00,174.000000,,2013-02-08 23:21:00,
2013-02-08 17:32:00,35.0,35.0,-100.00,SSE,153,14.0,22.0,100,0.00,,,0.00,174.000000,,2013-02-08 23:32:00,
2013-02-08 17:42:00,35.0,35.0,-100.00,SSE,153,14.0,22.0,100,0.00,,,0.00,174.000000,,2013-02-08 23:42:00,
2013-02-08 17:52:00,35.0,35.0,-100.00,SSE,153,14.0,22.0,100,0.00,,,0.00,174.000000,,2013-02-08 23:52:00,
2013-02-08 18:22:00,34.0,33.0,-100.00,SSE,150,11.0,20.0,97,0.00,,,0.00,75.000000,,2013-02-09 00:22:00,
2013-02-08 18:32:00,34.0,33.0,-100.00,SSE,150,11.0,20.0,97,0.00,,,0.00,75.000000,,2013-02-09 00:32:00,
2013-02-08 18:42:00,34.0,33.0,-100.00,SSE,150,11.0,20.0,97,0.00,,,0.00,75.000000,,2013-02-09 00:42:00,
2013-02-08 18:52:00,34.0,33.0,-100.00,SSE,150,11.0,20.0,97,0.00,,,0.00,75.000000,,2013-02-09 00:52:00,
2013-02-08 19:22:00,32.0,32.0,-100.00,SE,141,12.0,17.0,100,0.00,,,0.00,2.000000,,2013-02-09 01:22:00,
2013-02-08 19:32:00,32.0,32.0,-100.00,SE,141,12.0,17.0,100,0.00,,,0.00,2.000000,,2013-02-09 01:32:00,
2013-02-08 19:42:00,32.0,32.0,-100.00,SE,141,12.0,17.0,100,0.00,,,0.00,2.000000,,2013-02-09 01:42:00,
2013-02-08 19:52:00,32.0,32.0,-100.00,SE,141,12.0,17.0,100,0.00,,,0.00,2.000000,,2013-02-09 01:52:00,
2013-02-08 20:21:00,32.0,32.0,-100.00,SE,143,17.0,22.0,100,0.00,,,0.00,0.000000,,2013-02-09 02:21:00,
2013-02-08 20:32:00,32.0,32.0,-100.00,SE,143,17.0,22.0,100,0.00,,,0.00,0.000000,,2013-02-09 02:32:00,
2013-02-08 20:42:00,32.0,32.0,-100.00,SE,143,17.0,22.0,100,0.00,,,0.00,0.000000,,2013-02-09 02:42:00,
2013-02-08 20:52:00,32.0,32.0,-100.00,SE,143,17.0,22.0,100,0.00,,,0.00,0.000000,,2013-02-09 02:52:00,
2013-02-08 21:22:00,30.0,30.0,-100.00,SSE,162,9.0,19.0,100,0.00,,,0.00,0.000000,,2013-02-09 03:22:00,
2013-02-08 21:32:00,30.0,30.0,-100.00,SSE,162,9.0,19.0,100,0.00,,,0.00,0.000000,,2013-02-09 03:32:00,
2013-02-08 21:42:00,30.0,30.0,-100.00,SSE,162,9.0,19.0,100,0.00,,,0.00,0.000000,,2013-02-09 03:42:00,
2013-02-08 21:52:00,30.0,30.0,-100.00,SSE,162,9.0,19.0,100,0.00,,,0.00,0.000000,,2013-02-09 03:52:00,
2013-02-08 22:23:00,31.0,31.0,-100.00,SSE,154,14.0,18.0,100,0.00,,,0.00,0.000000,,2013-02-09 04:23:00,
2013-02-08 22:32:00,31.0,31.0,-100.00,SSE,154,14.0,18.0,100,0.00,,,0.00,0.000000,,2013-02-09 04:32:00,
2013-02-08 22:42:00,31.0,31.0,-100.00,SSE,154,14.0,18.0,100,0.00,,,0.00,0.000000,,2013-02-09 04:42:00,
2013-02-08 22:52:00,31.0,31.0,-100.00,SSE,154,14.0,18.0,100,0.00,,,0.00,0.000000,,2013-02-09 04:52:00,
2013-02-08 23:22:00,31.0,31.0,-100.00,SE,145,14.0,17.0,100,0.00,,,0.00,0.000000,,2013-02-09 05:22:00,
2013-02-08 23:32:00,31.0,31.0,-100.00,SE,145,14.0,17.0,100,0.00,,,0.00,0.000000,,2013-02-09 05:32:00,
2013-02-08 23:42:00,31.0,31.0,-100.00,SE,145,14.0,17.0,100,0.00,,,0.00,0.000000,,2013-02-09 05:42:00,
2013-02-08 23:52:00,31.0,31.0,-100.00,SE,145,14.0,17.0,100,0.00,,,0.00,0.000000,,2013-02-09 05:52:00,